Wink, TX

3:58 AM CDT on July 21, 2017 (GMT -0500)
Winkler County

Weather History for KINK - March, 2014

Change the Weather History Date:

Friday, March 7, 2014

  Actual Average Record
Temperature  
Mean Temperature 66 °F -  
Max Temperature 84 °F 71 °F 93 °F (2006)
Min Temperature 48 °F 37 °F 19 °F (1977)
Cooling Degree Days 1    
Growing Degree Days 16 (Base 50)    
Moisture  
Dew Point 26 °F    
Average Humidity 26    
Maximum Humidity 46    
Minimum Humidity 11    
Precipitation  
Precipitation 0.00 in - - ()
Sea Level Pressure  
Sea Level Pressure 29.72 in    
Wind  
Wind Speed 10 mph (SSW)    
Max Wind Speed 21 mph    
Max Gust Speed 28 mph    
Visibility 10 miles    
Events      
Averages and records for this station are not official NWS values.
T = Trace of Precipitation, MM = Missing Value Source: NWS Daily Summary

Daily Weather History Graph

Daily Weather History Graph

Search for Another Location

Airport or City:

Trip Planner

Search our weather history database for the weather conditions in past years. The results will help you decide how hot, cold, wet, or windy it might be!

Date:

Astronomy

Mar. 07, 2014 Rise Set
Actual Time 7:12 AM CST 6:55 PM CST
Civil Twilight 6:48 AM CST 7:19 PM CST
Nautical Twilight 6:20 AM CST 7:47 PM CST
Astronomical Twilight 5:51 AM CST 8:16 PM CST
Moon 11:29 AM CST (3/7) 12:40 AM CST (3/7)
Length of Visible Light 12h 31m
Length of Day
11h 42m
Waxing Crescent, 42% of the Moon is Illuminated
Mar 7
Waxing Crescent
Mar 8
First Quarter
Mar 16
Full
Mar 23
Last Quarter
Mar 30
New

Hourly Weather History & Observations

Time (CST) Temp. Dew Point Humidity Pressure Visibility Wind Dir Wind Speed Gust Speed Precip Events Conditions
12:53 AM 55.9 °F 25.0 °F 30% 29.82 in 10.0 mi SSE 10.4 mph - N/A   Clear
1:53 AM 55.0 °F 25.0 °F 31% 29.81 in 10.0 mi SSE 6.9 mph - N/A   Clear
2:53 AM 54.0 °F 25.0 °F 33% 29.78 in 10.0 mi ESE 8.1 mph - N/A   Clear
3:53 AM 52.0 °F 25.0 °F 35% 29.77 in 10.0 mi SE 9.2 mph - N/A   Clear
4:53 AM 51.1 °F 27.0 °F 39% 29.76 in 10.0 mi SE 10.4 mph - N/A   Clear
5:53 AM 50.0 °F 28.0 °F 43% 29.77 in 10.0 mi SE 9.2 mph - N/A   Clear
6:53 AM 50.0 °F 28.9 °F 44% 29.78 in 10.0 mi SE 8.1 mph - N/A   Clear
7:53 AM 48.9 °F 28.9 °F 46% 29.80 in 10.0 mi North 4.6 mph - N/A   Clear
8:53 AM 54.0 °F 28.9 °F 38% 29.80 in 10.0 mi ESE 5.8 mph - N/A   Clear
9:53 AM 59.0 °F 30.0 °F 33% 29.79 in 10.0 mi SE 6.9 mph - N/A   Clear
10:53 AM 66.0 °F 28.0 °F 24% 29.77 in 10.0 mi South 5.8 mph - N/A   Clear
11:53 AM 73.0 °F 25.0 °F 17% 29.74 in 10.0 mi SW 9.2 mph - N/A   Clear
12:53 PM 80.1 °F 23.0 °F 12% 29.69 in 10.0 mi West 15.0 mph 19.6 mph N/A   Clear
1:53 PM 82.9 °F 23.0 °F 11% 29.64 in 10.0 mi West 16.1 mph 23.0 mph N/A   Clear
2:31 PM 84.0 °F 23.0 °F 11% 29.73 in 10.0 mi WSW 19.6 mph 25.3 mph N/A   Clear
2:53 PM 84.0 °F 23.0 °F 11% 29.61 in 10.0 mi West 20.7 mph 27.6 mph N/A   Clear
3:53 PM 82.9 °F 21.9 °F 11% 29.60 in 10.0 mi WNW 12.7 mph 26.5 mph N/A   Clear
4:53 PM 82.9 °F 21.9 °F 11% 29.60 in 10.0 mi West 16.1 mph 23.0 mph N/A   Clear
5:53 PM 82.0 °F 21.9 °F 11% 29.60 in 10.0 mi West 17.3 mph - N/A   Clear
6:53 PM 77.0 °F 23.0 °F 13% 29.62 in 10.0 mi West 11.5 mph 21.9 mph N/A   Clear
7:53 PM 70.0 °F 21.9 °F 16% 29.65 in 10.0 mi WSW 9.2 mph - N/A   Clear
8:53 PM 66.0 °F 23.0 °F 20% 29.67 in 10.0 mi WSW 8.1 mph - N/A   Clear
9:53 PM 61.0 °F 21.9 °F 22% 29.68 in 10.0 mi WSW 4.6 mph - N/A   Clear
10:53 PM 60.1 °F 36.0 °F 41% 29.70 in 10.0 mi Calm Calm - N/A   Clear
11:53 PM 59.0 °F 37.9 °F 46% 29.71 in 10.0 mi Calm Calm - N/A   Clear